User: anonymous   Login
Location: Brunembert
(50.7122°N, 1.8935°E)
Time: 13:14:56
(UTC+00:00)
Language:

Cosmos 676 Rocket - Orbit

View from above orbital plane
View from above orbital plane
View from above satellite
View from above satellite

Ground track
Ground track

The orbit data is extracted from the following two-line orbital elements,

1 07434U 74071B   21173.80613808  .00000063  00000-0  30365-4 0  9995
2 07434  74.0477  40.3545 0021396 306.9815  52.9379 14.36770031447331
Epoch (UTC): 22 June 2021 19:20:50
Eccentricity: 0.0021396
inclination: 74.0477°
perigee height: 754 km
apogee height: 784 km
right ascension of ascending node: 40.3545°
argument of perigee: 306.9815°
revolutions per day: 14.36770031
mean anomaly at epoch: 52.9379°
orbit number at epoch: 44733

The dashed part of the orbit path shows where the satellite is in the earth's shadow,  

DLR